Wolke Sonne

Wetter Ammerndorf

Gehe zu: Roßtal

Tageswerte vom Donnerstag, 10.03.2022

Optionen

Tag:
Erweitert:

Alle Werte vom Donnerstag, 10.03.2022

Einen Moment bitte, die Daten werden aufbereitet...

UhrzeitTemperaturBoden 10cmBoden 20cmFeuchteLuftdruckNiederschlagEvapotranspirationWindWindböenWindrichtungSolarstrahlungUV-IndexSonne?Uhrzeit
Diagramm IconDiagramm IconDiagramm IconDiagramm IconDiagramm IconDiagramm IconDiagramm IconDiagramm IconDiagramm IconDiagramm IconDiagramm IconDiagramm IconDiagramm Icon
00:00-3,6 °C 2,8 °C 3,3 °C 82 % 1029,2 hPa 0,0 mm - 0,0 km/h 0,0 km/h S 0,0 W/qm 0,0 nein 00:00
00:05-3,6 °C 2,2 °C 3,3 °C 82 % 1029,3 hPa 0,0 mm 0,0 mm 0,0 km/h 0,0 km/h S 0,0 W/qm 0,0 nein 00:05
00:10-3,8 °C 2,2 °C 3,3 °C 83 % 1029,4 hPa 0,0 mm 0,0 mm 0,0 km/h 0,0 km/h S 0,0 W/qm 0,0 nein 00:10
00:15-3,7 °C 2,2 °C 3,3 °C 83 % 1029,4 hPa 0,0 mm - 0,0 km/h 0,0 km/h S 0,0 W/qm 0,0 nein 00:15
00:20-3,8 °C 2,2 °C 3,3 °C 83 % 1029,4 hPa 0,0 mm - 0,0 km/h 0,0 km/h S 0,0 W/qm 0,0 nein 00:20
00:25-3,9 °C 2,2 °C 3,3 °C 82 % 1029,4 hPa 0,0 mm - 0,0 km/h 0,0 km/h S 0,0 W/qm 0,0 nein 00:25
00:30-4,0 °C 2,2 °C 3,3 °C 83 % 1029,4 hPa 0,0 mm - 0,0 km/h 0,0 km/h S 0,0 W/qm 0,0 nein 00:30
00:35-4,1 °C 2,2 °C 3,3 °C 83 % 1029,5 hPa 0,0 mm - 0,0 km/h 0,0 km/h S 0,0 W/qm 0,0 nein 00:35
00:40-4,0 °C 2,2 °C 3,3 °C 83 % 1029,6 hPa 0,0 mm - 0,0 km/h 0,0 km/h S 0,0 W/qm 0,0 nein 00:40
00:45-4,1 °C 2,2 °C 3,3 °C 84 % 1029,6 hPa 0,0 mm - 0,0 km/h 0,0 km/h S 0,0 W/qm 0,0 nein 00:45
00:50-4,1 °C 2,2 °C 3,3 °C 84 % 1029,6 hPa 0,0 mm - 0,0 km/h 0,0 km/h S 0,0 W/qm 0,0 nein 00:50
00:55-4,1 °C 2,2 °C 2,8 °C 84 % 1029,6 hPa 0,0 mm - 0,0 km/h 0,0 km/h S 0,0 W/qm 0,0 nein 00:55
01:00-4,2 °C 2,2 °C 2,8 °C 84 % 1029,5 hPa 0,0 mm - 0,0 km/h 0,0 km/h S 0,0 W/qm 0,0 nein 01:00
01:05-4,1 °C 2,2 °C 2,8 °C 84 % 1029,6 hPa 0,0 mm 0,0 mm 0,0 km/h 0,0 km/h S 0,0 W/qm 0,0 nein 01:05
01:10-4,1 °C 2,2 °C 2,8 °C 84 % 1029,5 hPa 0,0 mm 0,0 mm 0,0 km/h 0,0 km/h S 0,0 W/qm 0,0 nein 01:10
01:15-4,4 °C 2,2 °C 2,8 °C 83 % 1029,7 hPa 0,0 mm - 0,0 km/h 0,0 km/h S 0,0 W/qm 0,0 nein 01:15
01:20-4,4 °C 2,2 °C 2,8 °C 84 % 1029,7 hPa 0,0 mm - 0,0 km/h 0,0 km/h S 0,0 W/qm 0,0 nein 01:20
01:25-4,4 °C 2,2 °C 2,8 °C 84 % 1029,7 hPa 0,0 mm - 0,0 km/h 0,0 km/h S 0,0 W/qm 0,0 nein 01:25
01:30-4,4 °C 2,2 °C 2,8 °C 84 % 1029,7 hPa 0,0 mm - 0,0 km/h 0,0 km/h S 0,0 W/qm 0,0 nein 01:30
01:35-4,5 °C 2,2 °C 2,8 °C 84 % 1029,6 hPa 0,0 mm - 0,0 km/h 0,0 km/h S 0,0 W/qm 0,0 nein 01:35
01:40-4,5 °C 2,2 °C 2,8 °C 85 % 1029,7 hPa 0,0 mm - 0,0 km/h 0,0 km/h S 0,0 W/qm 0,0 nein 01:40
01:45-4,4 °C 2,2 °C 2,8 °C 85 % 1029,7 hPa 0,0 mm - 0,0 km/h 0,0 km/h S 0,0 W/qm 0,0 nein 01:45
01:50-4,5 °C 2,2 °C 2,8 °C 85 % 1029,7 hPa 0,0 mm - 0,0 km/h 0,0 km/h S 0,0 W/qm 0,0 nein 01:50
01:55-4,6 °C 2,2 °C 2,8 °C 85 % 1029,7 hPa 0,0 mm - 0,0 km/h 0,0 km/h S 0,0 W/qm 0,0 nein 01:55
UhrzeitTemperaturBoden 10cmBoden 20cmFeuchteLuftdruckNiederschlagEvapotranspirationWindWindböenWindrichtungSolarstrahlungUV-IndexSonne?Uhrzeit
02:00-4,6 °C 2,2 °C 2,8 °C 85 % 1029,7 hPa 0,0 mm - 0,0 km/h 0,0 km/h S 0,0 W/qm 0,0 nein 02:00
02:05-4,6 °C 2,2 °C 2,8 °C 85 % 1029,7 hPa 0,0 mm 0,0 mm 0,0 km/h 0,0 km/h S 0,0 W/qm 0,0 nein 02:05
02:10-4,8 °C 2,2 °C 2,8 °C 85 % 1029,7 hPa 0,0 mm 0,0 mm 0,0 km/h 0,0 km/h S 0,0 W/qm 0,0 nein 02:10
02:15-4,9 °C 2,2 °C 2,8 °C 85 % 1029,8 hPa 0,0 mm - 0,0 km/h 0,0 km/h S 0,0 W/qm 0,0 nein 02:15
02:20-4,8 °C 2,2 °C 2,8 °C 85 % 1029,7 hPa 0,0 mm - 0,0 km/h 0,0 km/h S 0,0 W/qm 0,0 nein 02:20
02:25-4,7 °C 2,2 °C 2,8 °C 85 % 1029,7 hPa 0,0 mm - 0,0 km/h 0,0 km/h S 0,0 W/qm 0,0 nein 02:25
02:30-4,8 °C 2,2 °C 2,8 °C 85 % 1029,8 hPa 0,0 mm - 0,0 km/h 0,0 km/h S 0,0 W/qm 0,0 nein 02:30
02:35-4,9 °C 2,2 °C 2,8 °C 85 % 1029,9 hPa 0,0 mm - 0,0 km/h 0,0 km/h S 0,0 W/qm 0,0 nein 02:35
02:40-5,1 °C 2,2 °C 2,8 °C 85 % 1029,9 hPa 0,0 mm - 0,0 km/h 0,0 km/h S 0,0 W/qm 0,0 nein 02:40
02:45-5,1 °C 2,2 °C 2,8 °C 86 % 1029,9 hPa 0,0 mm - 0,0 km/h 0,0 km/h S 0,0 W/qm 0,0 nein 02:45
02:50-5,0 °C 2,2 °C 2,8 °C 86 % 1029,8 hPa 0,0 mm - 0,0 km/h 0,0 km/h S 0,0 W/qm 0,0 nein 02:50
02:55-4,9 °C 2,2 °C 2,8 °C 86 % 1029,9 hPa 0,0 mm - 0,0 km/h 0,0 km/h S 0,0 W/qm 0,0 nein 02:55
03:00-5,1 °C 2,2 °C 2,8 °C 86 % 1029,9 hPa 0,0 mm - 0,0 km/h 0,0 km/h S 0,0 W/qm 0,0 nein 03:00
03:05-5,2 °C 2,2 °C 2,8 °C 86 % 1029,9 hPa 0,0 mm 0,0 mm 0,0 km/h 0,0 km/h S 0,0 W/qm 0,0 nein 03:05
03:10-5,3 °C 2,2 °C 2,8 °C 87 % 1030,0 hPa 0,0 mm 0,0 mm 0,0 km/h 0,0 km/h S 0,0 W/qm 0,0 nein 03:10
03:15-5,3 °C 2,2 °C 2,8 °C 86 % 1030,0 hPa 0,0 mm - 0,0 km/h 0,0 km/h S 0,0 W/qm 0,0 nein 03:15
03:20-5,3 °C 2,2 °C 2,8 °C 87 % 1030,0 hPa 0,0 mm - 0,0 km/h 0,0 km/h S 0,0 W/qm 0,0 nein 03:20
03:25-5,2 °C 2,2 °C 2,8 °C 87 % 1030,1 hPa 0,0 mm - 0,0 km/h 0,0 km/h S 0,0 W/qm 0,0 nein 03:25
03:30-5,3 °C 2,2 °C 2,8 °C 87 % 1030,1 hPa 0,0 mm - 0,0 km/h 0,0 km/h S 0,0 W/qm 0,0 nein 03:30
03:35-5,2 °C 2,2 °C 2,8 °C 87 % 1030,2 hPa 0,0 mm - 0,0 km/h 0,0 km/h S 0,0 W/qm 0,0 nein 03:35
03:40-5,5 °C 1,7 °C 2,8 °C 86 % 1030,3 hPa 0,0 mm - 0,0 km/h 0,0 km/h S 0,0 W/qm 0,0 nein 03:40
03:45-5,5 °C 1,7 °C 2,8 °C 87 % 1030,3 hPa 0,0 mm - 0,0 km/h 0,0 km/h S 0,0 W/qm 0,0 nein 03:45
03:50-5,6 °C 1,7 °C 2,8 °C 87 % 1030,3 hPa 0,0 mm - 0,0 km/h 0,0 km/h S 0,0 W/qm 0,0 nein 03:50
03:55-5,7 °C 1,7 °C 2,8 °C 87 % 1030,4 hPa 0,0 mm - 0,0 km/h 0,0 km/h S 0,0 W/qm 0,0 nein 03:55
UhrzeitTemperaturBoden 10cmBoden 20cmFeuchteLuftdruckNiederschlagEvapotranspirationWindWindböenWindrichtungSolarstrahlungUV-IndexSonne?Uhrzeit
04:00-5,7 °C 1,7 °C 2,8 °C 87 % 1030,4 hPa 0,0 mm - 0,0 km/h 0,0 km/h S 0,0 W/qm 0,0 nein 04:00
04:05-5,6 °C 1,7 °C 2,8 °C 87 % 1030,5 hPa 0,0 mm 0,0 mm 0,0 km/h 0,0 km/h S 0,0 W/qm 0,0 nein 04:05
04:10-5,5 °C 1,7 °C 2,8 °C 87 % 1030,5 hPa 0,0 mm 0,0 mm 0,0 km/h 0,0 km/h S 0,0 W/qm 0,0 nein 04:10
04:15-5,6 °C 1,7 °C 2,8 °C 87 % 1030,6 hPa 0,0 mm - 0,0 km/h 0,0 km/h S 0,0 W/qm 0,0 nein 04:15
04:20-5,7 °C 1,7 °C 2,8 °C 87 % 1030,7 hPa 0,0 mm - 0,0 km/h 0,0 km/h S 0,0 W/qm 0,0 nein 04:20
04:25-5,7 °C 1,7 °C 2,8 °C 88 % 1030,7 hPa 0,0 mm - 0,0 km/h 0,0 km/h S 0,0 W/qm 0,0 nein 04:25
04:30-5,7 °C 1,7 °C 2,8 °C 87 % 1030,7 hPa 0,0 mm - 0,0 km/h 0,0 km/h S 0,0 W/qm 0,0 nein 04:30
04:35-5,7 °C 1,7 °C 2,8 °C 88 % 1030,7 hPa 0,0 mm - 0,0 km/h 0,0 km/h S 0,0 W/qm 0,0 nein 04:35
04:40-5,9 °C 1,7 °C 2,8 °C 88 % 1030,7 hPa 0,0 mm - 0,0 km/h 0,0 km/h S 0,0 W/qm 0,0 nein 04:40
04:45-5,9 °C 1,7 °C 2,8 °C 88 % 1030,6 hPa 0,0 mm - 0,0 km/h 0,0 km/h S 0,0 W/qm 0,0 nein 04:45
04:50-5,9 °C 1,7 °C 2,8 °C 88 % 1030,7 hPa 0,0 mm - 0,0 km/h 0,0 km/h S 0,0 W/qm 0,0 nein 04:50
04:55-5,9 °C 1,7 °C 2,8 °C 88 % 1030,7 hPa 0,0 mm - 0,0 km/h 0,0 km/h S 0,0 W/qm 0,0 nein 04:55
05:00-5,9 °C 1,7 °C 2,8 °C 88 % 1030,7 hPa 0,0 mm - 0,0 km/h 0,0 km/h S 0,0 W/qm 0,0 nein 05:00
05:05-5,9 °C 1,7 °C 2,8 °C 88 % 1030,7 hPa 0,0 mm 0,0 mm 0,0 km/h 0,0 km/h S 0,0 W/qm 0,0 nein 05:05
05:10-6,0 °C 1,7 °C 2,8 °C 88 % 1030,8 hPa 0,0 mm 0,0 mm 0,0 km/h 0,0 km/h S 0,0 W/qm 0,0 nein 05:10
05:15-6,1 °C 1,7 °C 2,8 °C 88 % 1030,9 hPa 0,0 mm - 0,0 km/h 0,0 km/h S 0,0 W/qm 0,0 nein 05:15
05:20-6,2 °C 1,7 °C 2,8 °C 88 % 1030,9 hPa 0,0 mm - 0,0 km/h 0,0 km/h S 0,0 W/qm 0,0 nein 05:20
05:25-6,1 °C 1,7 °C 2,8 °C 88 % 1030,9 hPa 0,0 mm - 0,0 km/h 0,0 km/h S 0,0 W/qm 0,0 nein 05:25
05:30-6,2 °C 1,7 °C 2,8 °C 88 % 1030,9 hPa 0,0 mm - 0,0 km/h 0,0 km/h S 0,0 W/qm 0,0 nein 05:30
05:35-6,1 °C 1,7 °C 2,8 °C 88 % 1030,9 hPa 0,0 mm - 0,0 km/h 0,0 km/h S 0,0 W/qm 0,0 nein 05:35
05:40-6,2 °C 1,7 °C 2,8 °C 88 % 1030,9 hPa 0,0 mm - 0,0 km/h 0,0 km/h S 0,0 W/qm 0,0 nein 05:40
05:45-6,2 °C 1,7 °C 2,8 °C 88 % 1031,0 hPa 0,0 mm - 0,0 km/h 0,0 km/h S 0,0 W/qm 0,0 nein 05:45
05:50-6,2 °C 1,7 °C 2,8 °C 88 % 1030,9 hPa 0,0 mm - 0,0 km/h 0,0 km/h S 0,0 W/qm 0,0 nein 05:50
05:55-6,3 °C 1,7 °C 2,8 °C 88 % 1030,9 hPa 0,0 mm - 0,0 km/h 0,0 km/h S 0,0 W/qm 0,0 nein 05:55
UhrzeitTemperaturBoden 10cmBoden 20cmFeuchteLuftdruckNiederschlagEvapotranspirationWindWindböenWindrichtungSolarstrahlungUV-IndexSonne?Uhrzeit
06:00-6,3 °C 1,7 °C 2,8 °C 88 % 1030,9 hPa 0,0 mm - 0,0 km/h 0,0 km/h S 0,0 W/qm 0,0 nein 06:00
06:05-6,3 °C 1,7 °C 2,8 °C 88 % 1031,0 hPa 0,0 mm 0,0 mm 0,0 km/h 0,0 km/h S 0,0 W/qm 0,0 nein 06:05
06:10-6,4 °C 1,7 °C 2,8 °C 88 % 1030,9 hPa 0,0 mm 0,0 mm 0,0 km/h 0,0 km/h S 0,0 W/qm 0,0 nein 06:10
06:15-6,4 °C 1,7 °C 2,8 °C 89 % 1030,9 hPa 0,0 mm - 0,0 km/h 0,0 km/h S 0,0 W/qm 0,0 nein 06:15
06:20-6,4 °C 1,7 °C 2,8 °C 89 % 1031,0 hPa 0,0 mm - 0,0 km/h 0,0 km/h S 0,0 W/qm 0,0 nein 06:20
06:25-6,4 °C 1,7 °C 2,8 °C 89 % 1031,0 hPa 0,0 mm - 0,0 km/h 0,0 km/h S 0,0 W/qm 0,0 nein 06:25
06:30-6,3 °C 1,7 °C 2,8 °C 89 % 1031,0 hPa 0,0 mm - 0,0 km/h 0,0 km/h S 0,0 W/qm 0,0 nein 06:30
06:35-6,4 °C 1,7 °C 2,8 °C 89 % 1031,0 hPa 0,0 mm - 0,0 km/h 0,0 km/h S 0,0 W/qm 0,0 nein 06:35
06:40-6,4 °C 1,7 °C 2,8 °C 89 % 1031,0 hPa 0,0 mm - 0,0 km/h 0,0 km/h S 5,0 W/qm 0,0 nein 06:40
06:45-6,4 °C 1,7 °C 2,8 °C 89 % 1031,0 hPa 0,0 mm - 0,0 km/h 0,0 km/h S 7,0 W/qm 0,0 nein 06:45
06:50-6,4 °C 1,7 °C 2,8 °C 89 % 1031,1 hPa 0,0 mm - 0,0 km/h 0,0 km/h S 9,0 W/qm 0,0 nein 06:50
06:55-6,4 °C 1,7 °C 2,8 °C 89 % 1031,1 hPa 0,0 mm - 0,0 km/h 0,0 km/h S 12,0 W/qm 0,0 nein 06:55
07:00-6,3 °C 1,7 °C 2,8 °C 89 % 1031,1 hPa 0,0 mm - 0,0 km/h 0,0 km/h S 14,0 W/qm 0,0 nein 07:00
07:05-6,4 °C 1,7 °C 2,8 °C 89 % 1031,1 hPa 0,0 mm 0,0 mm 0,0 km/h 0,0 km/h S 16,0 W/qm 0,0 nein 07:05
07:10-6,3 °C 1,7 °C 2,8 °C 89 % 1031,0 hPa 0,0 mm 0,0 mm 0,0 km/h 0,0 km/h S 18,0 W/qm 0,0 nein 07:10
07:15-6,3 °C 1,7 °C 2,8 °C 89 % 1031,0 hPa 0,0 mm - 0,0 km/h 0,0 km/h S 21,0 W/qm 0,0 nein 07:15
07:20-6,2 °C 1,7 °C 2,8 °C 89 % 1031,0 hPa 0,0 mm - 0,0 km/h 0,0 km/h S 21,0 W/qm 0,0 nein 07:20
07:25-6,1 °C 1,7 °C 2,8 °C 89 % 1031,0 hPa 0,0 mm - 0,0 km/h 0,0 km/h S 23,0 W/qm 0,0 nein 07:25
07:30-6,1 °C 1,7 °C 2,8 °C 89 % 1031,0 hPa 0,0 mm - 0,0 km/h 0,0 km/h S 25,0 W/qm 0,0 nein 07:30
07:35-5,9 °C 1,7 °C 2,8 °C 89 % 1031,0 hPa 0,0 mm - 0,0 km/h 0,0 km/h S 26,0 W/qm 0,0 nein 07:35
07:40-5,8 °C 1,7 °C 2,8 °C 89 % 1031,0 hPa 0,0 mm - 0,0 km/h 0,0 km/h S 28,0 W/qm 0,0 nein 07:40
07:45-5,8 °C 1,7 °C 2,8 °C 89 % 1031,0 hPa 0,0 mm - 0,0 km/h 0,0 km/h S 30,0 W/qm 0,0 nein 07:45
07:50-5,7 °C 1,7 °C 2,8 °C 89 % 1031,1 hPa 0,0 mm - 0,0 km/h 0,0 km/h S 33,0 W/qm 0,0 nein 07:50
07:55-5,6 °C 1,7 °C 2,8 °C 89 % 1031,1 hPa 0,0 mm - 0,0 km/h 0,0 km/h S 40,0 W/qm 0,0 nein 07:55
UhrzeitTemperaturBoden 10cmBoden 20cmFeuchteLuftdruckNiederschlagEvapotranspirationWindWindböenWindrichtungSolarstrahlungUV-IndexSonne?Uhrzeit
08:00-5,4 °C 1,7 °C 2,8 °C 89 % 1031,2 hPa 0,0 mm - 0,0 km/h 0,0 km/h S 44,0 W/qm 0,0 nein 08:00
08:05-5,1 °C 1,7 °C 2,8 °C 89 % 1031,1 hPa 0,0 mm 0,0 mm 0,0 km/h 0,0 km/h S 44,0 W/qm 0,0 nein 08:05
08:10-4,8 °C 1,7 °C 2,8 °C 89 % 1031,2 hPa 0,0 mm 0,0 mm 0,0 km/h 0,0 km/h S 46,0 W/qm 0,0 nein 08:10
08:15-4,6 °C 1,7 °C 2,8 °C 89 % 1031,3 hPa 0,0 mm - 0,0 km/h 0,0 km/h S 47,0 W/qm 0,0 nein 08:15
08:20-4,3 °C 1,7 °C 2,8 °C 89 % 1031,3 hPa 0,0 mm - 0,0 km/h 0,0 km/h S 49,0 W/qm 0,0 nein 08:20
08:25-4,2 °C 1,7 °C 2,8 °C 88 % 1031,3 hPa 0,0 mm - 0,0 km/h 0,0 km/h S 49,0 W/qm 0,0 nein 08:25
08:30-4,0 °C 1,7 °C 2,8 °C 88 % 1031,4 hPa 0,0 mm - 0,0 km/h 0,0 km/h S 51,0 W/qm 0,0 nein 08:30
08:35-3,6 °C 1,7 °C 2,8 °C 88 % 1031,2 hPa 0,0 mm - 0,0 km/h 0,0 km/h S 53,0 W/qm 0,0 nein 08:35
08:40-2,9 °C 1,7 °C 2,8 °C 88 % 1031,1 hPa 0,0 mm - 0,0 km/h 0,0 km/h S 105,0 W/qm 0,0 nein 08:40
08:45-2,4 °C 1,7 °C 2,8 °C 86 % 1031,1 hPa 0,0 mm - 0,0 km/h 0,0 km/h S 299,0 W/qm 0,5 ja 08:45
08:50-2,2 °C 1,7 °C 2,8 °C 85 % 1031,0 hPa 0,0 mm - 0,0 km/h 0,0 km/h S 297,0 W/qm 0,5 ja 08:50
08:55-1,7 °C 1,7 °C 2,8 °C 85 % 1030,9 hPa 0,0 mm - 0,0 km/h 0,0 km/h S 309,0 W/qm 0,6 ja 08:55
09:00-1,0 °C 1,7 °C 2,8 °C 83 % 1030,9 hPa 0,0 mm - 0,0 km/h 0,0 km/h S 327,0 W/qm 0,6 ja 09:00
09:05-0,6 °C 1,7 °C 2,8 °C 82 % 1030,7 hPa 0,0 mm 0,1 mm 0,0 km/h 0,0 km/h S 345,0 W/qm 0,7 ja 09:05
09:10-0,4 °C 1,7 °C 2,8 °C 81 % 1030,7 hPa 0,0 mm 0,1 mm 0,0 km/h 0,0 km/h S 359,0 W/qm 0,7 ja 09:10
09:15-0,3 °C 1,7 °C 2,8 °C 82 % 1030,6 hPa 0,0 mm - 0,0 km/h 0,0 km/h S 371,0 W/qm 0,8 ja 09:15
09:200,3 °C 1,7 °C 2,8 °C 82 % 1030,4 hPa 0,0 mm - 0,0 km/h 0,0 km/h S 381,0 W/qm 0,8 ja 09:20
09:251,1 °C 1,7 °C 2,8 °C 78 % 1030,3 hPa 0,0 mm - 0,0 km/h 0,0 km/h S 394,0 W/qm 0,9 ja 09:25
09:301,3 °C 1,7 °C 2,8 °C 77 % 1030,2 hPa 0,0 mm - 0,0 km/h 0,0 km/h S 406,0 W/qm 0,9 ja 09:30
09:352,1 °C 1,7 °C 2,8 °C 74 % 1030,0 hPa 0,0 mm - 0,0 km/h 0,0 km/h S 415,0 W/qm 1,0 ja 09:35
09:402,8 °C 1,7 °C 2,8 °C 71 % 1030,0 hPa 0,0 mm - 0,0 km/h 0,0 km/h S 429,0 W/qm 1,0 ja 09:40
09:453,6 °C 1,7 °C 2,8 °C 68 % 1029,9 hPa 0,0 mm - 0,0 km/h 3,2 km/h S 441,0 W/qm 1,1 ja 09:45
09:504,0 °C 1,7 °C 2,2 °C 66 % 1029,7 hPa 0,0 mm - 0,0 km/h 3,2 km/h S 452,0 W/qm 1,1 ja 09:50
09:554,8 °C 1,7 °C 2,2 °C 65 % 1029,6 hPa 0,0 mm - 0,0 km/h 4,7 km/h S 464,0 W/qm 1,2 ja 09:55
UhrzeitTemperaturBoden 10cmBoden 20cmFeuchteLuftdruckNiederschlagEvapotranspirationWindWindböenWindrichtungSolarstrahlungUV-IndexSonne?Uhrzeit
10:005,6 °C 1,7 °C 2,2 °C 61 % 1029,5 hPa 0,0 mm - 1,4 km/h 6,5 km/h S 476,0 W/qm 1,2 ja 10:00
10:055,8 °C 1,7 °C 2,2 °C 58 % 1029,4 hPa 0,0 mm 0,2 mm 1,4 km/h 6,5 km/h SO 485,0 W/qm 1,3 ja 10:05
10:105,9 °C 1,7 °C 2,2 °C 58 % 1029,4 hPa 0,0 mm 0,2 mm 0,0 km/h 6,5 km/h OSO 494,0 W/qm 1,3 ja 10:10
10:156,1 °C 1,7 °C 2,2 °C 58 % 1029,4 hPa 0,0 mm - 1,4 km/h 9,7 km/h S 503,0 W/qm 1,3 ja 10:15
10:206,3 °C 1,7 °C 2,2 °C 57 % 1029,4 hPa 0,0 mm - 3,2 km/h 9,7 km/h SO 512,0 W/qm 1,4 ja 10:20
10:256,7 °C 1,7 °C 2,2 °C 57 % 1029,2 hPa 0,0 mm - 3,2 km/h 11,2 km/h ONO 520,0 W/qm 1,4 ja 10:25
10:306,9 °C 1,7 °C 2,2 °C 57 % 1029,1 hPa 0,0 mm - 1,4 km/h 11,2 km/h S 527,0 W/qm 1,5 ja 10:30
10:357,3 °C 1,7 °C 2,2 °C 56 % 1028,9 hPa 0,0 mm - 1,4 km/h 11,2 km/h ONO 538,0 W/qm 1,5 ja 10:35
10:407,3 °C 1,7 °C 2,2 °C 54 % 1028,9 hPa 0,0 mm - 3,2 km/h 7,9 km/h O 548,0 W/qm 1,5 ja 10:40
10:457,5 °C 1,7 °C 2,2 °C 55 % 1028,9 hPa 0,0 mm - 4,7 km/h 13,0 km/h S 552,0 W/qm 1,5 ja 10:45
10:507,9 °C 1,7 °C 2,2 °C 54 % 1028,8 hPa 0,0 mm - 3,2 km/h 13,0 km/h ONO 561,0 W/qm 1,6 ja 10:50
10:558,1 °C 1,7 °C 2,2 °C 52 % 1028,7 hPa 0,0 mm - 3,2 km/h 13,0 km/h OSO 568,0 W/qm 1,6 ja 10:55
11:008,4 °C 1,7 °C 2,2 °C 52 % 1028,7 hPa 0,0 mm - 3,2 km/h 9,7 km/h ONO 575,0 W/qm 1,7 ja 11:00
11:058,5 °C 1,7 °C 2,2 °C 51 % 1028,7 hPa 0,0 mm 0,4 mm 1,4 km/h 11,2 km/h NNO 582,0 W/qm 1,7 ja 11:05
11:108,8 °C 1,7 °C 2,2 °C 49 % 1028,5 hPa 0,0 mm 0,4 mm 1,4 km/h 11,2 km/h ONO 585,0 W/qm 1,8 ja 11:10
11:158,8 °C 1,7 °C 2,2 °C 49 % 1028,3 hPa 0,0 mm - 3,2 km/h 7,9 km/h ONO 592,0 W/qm 1,8 ja 11:15
11:209,3 °C 1,7 °C 2,2 °C 49 % 1028,3 hPa 0,0 mm - 3,2 km/h 7,9 km/h S 599,0 W/qm 1,8 ja 11:20
11:259,4 °C 1,7 °C 2,2 °C 49 % 1028,3 hPa 0,0 mm - 3,2 km/h 11,2 km/h ONO 603,0 W/qm 1,9 ja 11:25
11:309,3 °C 1,7 °C 2,2 °C 47 % 1028,3 hPa 0,0 mm - 4,7 km/h 11,2 km/h SSO 608,0 W/qm 1,9 ja 11:30
11:359,4 °C 1,7 °C 2,2 °C 48 % 1028,2 hPa 0,0 mm - 6,5 km/h 14,4 km/h ONO 613,0 W/qm 1,9 ja 11:35
11:409,6 °C 1,7 °C 2,2 °C 48 % 1028,3 hPa 0,0 mm - 4,7 km/h 14,4 km/h O 617,0 W/qm 1,9 ja 11:40
11:459,4 °C 1,7 °C 2,2 °C 47 % 1028,2 hPa 0,0 mm - 7,9 km/h 14,4 km/h SSO 621,0 W/qm 1,9 ja 11:45
11:509,7 °C 1,7 °C 2,2 °C 47 % 1028,2 hPa 0,0 mm - 7,9 km/h 17,6 km/h SSW 622,0 W/qm 1,9 ja 11:50
11:559,9 °C 1,7 °C 2,2 °C 44 % 1028,1 hPa 0,0 mm - 4,7 km/h 17,6 km/h SSO 624,0 W/qm 1,9 ja 11:55
UhrzeitTemperaturBoden 10cmBoden 20cmFeuchteLuftdruckNiederschlagEvapotranspirationWindWindböenWindrichtungSolarstrahlungUV-IndexSonne?Uhrzeit
12:0010,1 °C 1,7 °C 2,2 °C 43 % 1028,0 hPa 0,0 mm - 6,5 km/h 17,6 km/h SW 631,0 W/qm 1,9 ja 12:00
12:0510,5 °C 1,7 °C 2,2 °C 44 % 1027,8 hPa 0,0 mm 0,7 mm 6,5 km/h 17,6 km/h S 633,0 W/qm 1,9 ja 12:05
12:1010,7 °C 1,7 °C 2,2 °C 42 % 1027,6 hPa 0,0 mm 0,7 mm 4,7 km/h 17,6 km/h SO 635,0 W/qm 1,9 ja 12:10
12:1510,7 °C 1,7 °C 2,2 °C 44 % 1027,5 hPa 0,0 mm - 4,7 km/h 17,6 km/h SSO 642,0 W/qm 2,0 ja 12:15
12:2011,1 °C 2,2 °C 2,2 °C 41 % 1027,5 hPa 0,0 mm - 6,5 km/h 13,0 km/h OSO 642,0 W/qm 2,0 ja 12:20
12:2511,1 °C 2,2 °C 2,8 °C 41 % 1027,5 hPa 0,0 mm - 7,9 km/h 17,6 km/h OSO 643,0 W/qm 2,0 ja 12:25
12:3010,7 °C 2,2 °C 2,8 °C 42 % 1027,4 hPa 0,0 mm - 6,5 km/h 19,4 km/h SO 638,0 W/qm 1,9 ja 12:30
12:3510,9 °C 2,2 °C 2,8 °C 42 % 1027,3 hPa 0,0 mm - 3,2 km/h 19,4 km/h S 638,0 W/qm 2,0 ja 12:35
12:4011,6 °C 2,2 °C 2,8 °C 42 % 1027,1 hPa 0,0 mm - 3,2 km/h 19,4 km/h ONO 638,0 W/qm 2,0 ja 12:40
12:4511,5 °C 2,2 °C 2,8 °C 43 % 1027,0 hPa 0,0 mm - 4,7 km/h 13,0 km/h NNO 636,0 W/qm 2,0 ja 12:45
12:5011,4 °C 2,2 °C 2,8 °C 44 % 1027,0 hPa 0,0 mm - 3,2 km/h 14,4 km/h SSW 638,0 W/qm 2,0 ja 12:50
12:5511,5 °C 2,2 °C 2,8 °C 40 % 1027,0 hPa 0,0 mm - 3,2 km/h 14,4 km/h S 631,0 W/qm 2,0 ja 12:55
13:0011,7 °C 2,2 °C 2,8 °C 41 % 1026,8 hPa 0,0 mm - 4,7 km/h 11,2 km/h SSW 633,0 W/qm 2,0 ja 13:00
13:0511,8 °C 2,2 °C 2,8 °C 39 % 1026,7 hPa 0,0 mm 1,1 mm 6,5 km/h 13,0 km/h S 629,0 W/qm 1,9 ja 13:05
13:1011,8 °C 2,2 °C 2,8 °C 40 % 1026,7 hPa 0,0 mm 1,1 mm 6,5 km/h 14,4 km/h NO 629,0 W/qm 1,9 ja 13:10
13:1511,7 °C 2,2 °C 2,8 °C 40 % 1026,6 hPa 0,0 mm - 4,7 km/h 16,2 km/h S 624,0 W/qm 1,9 ja 13:15
13:2012,1 °C 2,8 °C 2,8 °C 38 % 1026,4 hPa 0,0 mm - 6,5 km/h 16,2 km/h OSO 619,0 W/qm 1,9 ja 13:20
13:2511,9 °C 2,8 °C 2,8 °C 37 % 1026,4 hPa 0,0 mm - 6,5 km/h 13,0 km/h S 615,0 W/qm 1,8 ja 13:25
13:3011,9 °C 2,8 °C 2,8 °C 37 % 1026,3 hPa 0,0 mm - 4,7 km/h 13,0 km/h S 617,0 W/qm 1,8 ja 13:30
13:3512,1 °C 2,8 °C 2,8 °C 36 % 1026,3 hPa 0,0 mm - 4,7 km/h 13,0 km/h SSO 610,0 W/qm 1,8 ja 13:35
13:4012,2 °C 2,8 °C 2,8 °C 37 % 1026,2 hPa 0,0 mm - 3,2 km/h 14,4 km/h SSO 603,0 W/qm 1,8 ja 13:40
13:4512,3 °C 2,8 °C 2,8 °C 36 % 1026,2 hPa 0,0 mm - 3,2 km/h 14,4 km/h SSO 601,0 W/qm 1,8 ja 13:45
13:5012,6 °C 2,8 °C 2,8 °C 35 % 1025,9 hPa 0,0 mm - 4,7 km/h 14,4 km/h S 596,0 W/qm 1,7 ja 13:50
13:5512,6 °C 2,8 °C 2,8 °C 35 % 1025,9 hPa 0,0 mm - 4,7 km/h 13,0 km/h ONO 584,0 W/qm 1,7 ja 13:55
UhrzeitTemperaturBoden 10cmBoden 20cmFeuchteLuftdruckNiederschlagEvapotranspirationWindWindböenWindrichtungSolarstrahlungUV-IndexSonne?Uhrzeit
14:0012,3 °C 2,8 °C 2,8 °C 35 % 1026,0 hPa 0,0 mm - 6,5 km/h 16,2 km/h SO 578,0 W/qm 1,6 ja 14:00
14:0512,1 °C 2,8 °C 2,8 °C 37 % 1026,0 hPa 0,0 mm 1,4 mm 6,5 km/h 17,6 km/h N 571,0 W/qm 1,6 ja 14:05
14:1012,5 °C 3,3 °C 2,8 °C 31 % 1025,8 hPa 0,0 mm 1,4 mm 6,5 km/h 17,6 km/h OSO 570,0 W/qm 1,6 ja 14:10
14:1512,4 °C 3,3 °C 2,8 °C 31 % 1025,9 hPa 0,0 mm - 6,5 km/h 17,6 km/h S 570,0 W/qm 1,6 ja 14:15
14:2012,7 °C 3,3 °C 2,8 °C 32 % 1025,8 hPa 0,0 mm - 6,5 km/h 17,6 km/h O 557,0 W/qm 1,5 ja 14:20
14:2512,7 °C 3,3 °C 2,8 °C 32 % 1025,6 hPa 0,0 mm - 4,7 km/h 17,6 km/h S 548,0 W/qm 1,5 ja 14:25
14:3012,4 °C 3,3 °C 2,8 °C 31 % 1025,7 hPa 0,0 mm - 6,5 km/h 14,4 km/h NNO 540,0 W/qm 1,4 ja 14:30
14:3512,4 °C 3,3 °C 2,8 °C 31 % 1025,5 hPa 0,0 mm - 4,7 km/h 14,4 km/h S 534,0 W/qm 1,4 ja 14:35
14:4012,4 °C 3,3 °C 2,8 °C 31 % 1025,5 hPa 0,0 mm - 4,7 km/h 14,4 km/h ONO 524,0 W/qm 1,4 ja 14:40
14:4512,4 °C 3,3 °C 2,8 °C 31 % 1025,4 hPa 0,0 mm - 4,7 km/h 14,4 km/h S 517,0 W/qm 1,3 ja 14:45
14:5012,9 °C 3,3 °C 2,8 °C 30 % 1025,4 hPa 0,0 mm - 4,7 km/h 14,4 km/h NO 506,0 W/qm 1,3 ja 14:50
14:5512,4 °C 3,3 °C 2,8 °C 31 % 1025,4 hPa 0,0 mm - 6,5 km/h 14,4 km/h NNO 496,0 W/qm 1,2 ja 14:55
15:0012,2 °C 3,3 °C 2,8 °C 30 % 1025,4 hPa 0,0 mm - 7,9 km/h 14,4 km/h NNO 487,0 W/qm 1,2 ja 15:00
15:0512,4 °C 3,3 °C 2,8 °C 30 % 1025,3 hPa 0,0 mm 1,7 mm 6,5 km/h 19,4 km/h SSO 478,0 W/qm 1,1 ja 15:05
15:1012,7 °C 3,3 °C 2,8 °C 30 % 1025,2 hPa 0,0 mm 1,7 mm 4,7 km/h 19,4 km/h SSO 468,0 W/qm 1,1 ja 15:10
15:1512,7 °C 3,9 °C 2,8 °C 29 % 1025,2 hPa 0,0 mm - 4,7 km/h 19,4 km/h SSO 457,0 W/qm 1,1 ja 15:15
15:2012,6 °C 3,9 °C 2,8 °C 30 % 1025,0 hPa 0,0 mm - 3,2 km/h 13,0 km/h S 445,0 W/qm 1,0 ja 15:20
15:2512,9 °C 3,9 °C 2,8 °C 30 % 1025,0 hPa 0,0 mm - 4,7 km/h 13,0 km/h O 436,0 W/qm 1,0 ja 15:25
15:3012,8 °C 3,9 °C 2,8 °C 31 % 1024,9 hPa 0,0 mm - 4,7 km/h 14,4 km/h SO 425,0 W/qm 0,9 ja 15:30
15:3512,8 °C 3,9 °C 2,8 °C 29 % 1024,9 hPa 0,0 mm - 3,2 km/h 14,4 km/h SSO 410,0 W/qm 0,9 ja 15:35
15:4013,0 °C 3,9 °C 2,8 °C 29 % 1024,7 hPa 0,0 mm - 3,2 km/h 14,4 km/h SO 401,0 W/qm 0,9 ja 15:40
15:4512,6 °C 3,9 °C 2,8 °C 28 % 1024,9 hPa 0,0 mm - 3,2 km/h 13,0 km/h O 387,0 W/qm 0,8 ja 15:45
15:5012,6 °C 3,9 °C 2,8 °C 29 % 1024,8 hPa 0,0 mm - 4,7 km/h 13,0 km/h ONO 374,0 W/qm 0,8 ja 15:50
15:5512,2 °C 3,9 °C 2,8 °C 28 % 1024,9 hPa 0,0 mm - 4,7 km/h 14,4 km/h S 362,0 W/qm 0,7 ja 15:55
UhrzeitTemperaturBoden 10cmBoden 20cmFeuchteLuftdruckNiederschlagEvapotranspirationWindWindböenWindrichtungSolarstrahlungUV-IndexSonne?Uhrzeit
16:0012,4 °C 3,9 °C 2,8 °C 29 % 1024,8 hPa 0,0 mm - 4,7 km/h 14,4 km/h S 348,0 W/qm 0,7 ja 16:00
16:0512,5 °C 3,9 °C 3,3 °C 28 % 1024,7 hPa 0,0 mm 2,0 mm 3,2 km/h 14,4 km/h O 336,0 W/qm 0,6 ja 16:05
16:1012,2 °C 3,9 °C 3,3 °C 27 % 1024,8 hPa 0,0 mm 2,0 mm 3,2 km/h 14,4 km/h SSO 322,0 W/qm 0,6 ja 16:10
16:1512,5 °C 3,9 °C 3,3 °C 27 % 1024,6 hPa 0,0 mm - 4,7 km/h 11,2 km/h SW 308,0 W/qm 0,6 ja 16:15
16:2012,3 °C 3,9 °C 3,3 °C 28 % 1024,6 hPa 0,0 mm - 4,7 km/h 11,2 km/h NNW 290,0 W/qm 0,5 ja 16:20
16:2512,4 °C 3,9 °C 3,3 °C 27 % 1024,5 hPa 0,0 mm - 3,2 km/h 16,2 km/h SSO 276,0 W/qm 0,5 ja 16:25
16:3012,5 °C 3,9 °C 3,3 °C 27 % 1024,4 hPa 0,0 mm - 1,4 km/h 16,2 km/h NW 258,0 W/qm 0,0 ja 16:30
16:3512,4 °C 3,9 °C 3,3 °C 27 % 1024,5 hPa 0,0 mm - 3,2 km/h 16,2 km/h SSO 241,0 W/qm 0,0 ja 16:35
16:4012,3 °C 3,9 °C 3,3 °C 27 % 1024,4 hPa 0,0 mm - 4,7 km/h 16,2 km/h SO 221,0 W/qm 0,0 nein 16:40
16:4512,3 °C 3,9 °C 3,3 °C 28 % 1024,4 hPa 0,0 mm - 1,4 km/h 16,2 km/h WSW 202,0 W/qm 0,0 nein 16:45
16:5012,2 °C 3,9 °C 3,3 °C 29 % 1024,4 hPa 0,0 mm - 3,2 km/h 16,2 km/h SSW 185,0 W/qm 0,0 nein 16:50
16:5512,0 °C 3,9 °C 3,3 °C 30 % 1024,5 hPa 0,0 mm - 4,7 km/h 11,2 km/h S 165,0 W/qm 0,0 nein 16:55
17:0011,9 °C 3,9 °C 3,3 °C 31 % 1024,5 hPa 0,0 mm - 4,7 km/h 14,4 km/h SSW 151,0 W/qm 0,0 nein 17:00
17:0511,7 °C 3,9 °C 3,3 °C 32 % 1024,4 hPa 0,0 mm 2,1 mm 3,2 km/h 14,4 km/h NO 118,0 W/qm 0,0 nein 17:05
17:1011,2 °C 3,9 °C 3,3 °C 34 % 1024,6 hPa 0,0 mm 2,1 mm 3,2 km/h 14,4 km/h SSW 42,0 W/qm 0,0 nein 17:10
17:1511,1 °C 3,9 °C 3,3 °C 33 % 1024,5 hPa 0,0 mm - 3,2 km/h 13,0 km/h WSW 42,0 W/qm 0,0 nein 17:15
17:2011,1 °C 3,9 °C 3,3 °C 33 % 1024,5 hPa 0,0 mm - 3,2 km/h 13,0 km/h SSW 32,0 W/qm 0,0 nein 17:20
17:2511,0 °C 3,9 °C 3,3 °C 33 % 1024,5 hPa 0,0 mm - 4,7 km/h 14,4 km/h SO 32,0 W/qm 0,0 nein 17:25
17:3010,8 °C 3,9 °C 3,3 °C 34 % 1024,6 hPa 0,0 mm - 3,2 km/h 14,4 km/h SW 26,0 W/qm 0,0 nein 17:30
17:3510,6 °C 3,9 °C 3,3 °C 34 % 1024,6 hPa 0,0 mm - 1,4 km/h 14,4 km/h SSO 23,0 W/qm 0,0 nein 17:35
17:4010,4 °C 3,9 °C 3,3 °C 35 % 1024,7 hPa 0,0 mm - 1,4 km/h 13,0 km/h S 21,0 W/qm 0,0 nein 17:40
17:4510,3 °C 3,9 °C 3,3 °C 35 % 1024,7 hPa 0,0 mm - 1,4 km/h 13,0 km/h SSW 19,0 W/qm 0,0 nein 17:45
17:5010,1 °C 3,9 °C 3,3 °C 35 % 1024,7 hPa 0,0 mm - 1,4 km/h 13,0 km/h W 18,0 W/qm 0,0 nein 17:50
17:559,8 °C 3,9 °C 3,3 °C 35 % 1024,8 hPa 0,0 mm - 1,4 km/h 7,9 km/h W 14,0 W/qm 0,0 nein 17:55
UhrzeitTemperaturBoden 10cmBoden 20cmFeuchteLuftdruckNiederschlagEvapotranspirationWindWindböenWindrichtungSolarstrahlungUV-IndexSonne?Uhrzeit
18:009,2 °C 3,9 °C 3,3 °C 37 % 1024,8 hPa 0,0 mm - 0,0 km/h 6,5 km/h N 12,0 W/qm 0,0 nein 18:00
18:058,8 °C 3,9 °C 3,3 °C 41 % 1024,9 hPa 0,0 mm 2,2 mm 1,4 km/h 6,5 km/h NNO 11,0 W/qm 0,0 nein 18:05
18:108,1 °C 3,9 °C 3,3 °C 42 % 1025,1 hPa 0,0 mm 2,2 mm 1,4 km/h 6,5 km/h SSO 9,0 W/qm 0,0 nein 18:10
18:157,5 °C 3,9 °C 3,3 °C 42 % 1025,1 hPa 0,0 mm - 1,4 km/h 6,5 km/h NO 5,0 W/qm 0,0 nein 18:15
18:207,3 °C 3,9 °C 3,3 °C 43 % 1025,1 hPa 0,0 mm - 1,4 km/h 6,5 km/h NW 5,0 W/qm 0,0 nein 18:20
18:257,3 °C 3,9 °C 3,3 °C 44 % 1025,1 hPa 0,0 mm - 1,4 km/h 6,5 km/h NO 0,0 W/qm 0,0 nein 18:25
18:307,1 °C 3,9 °C 3,3 °C 44 % 1025,2 hPa 0,0 mm - 1,4 km/h 6,5 km/h ONO 0,0 W/qm 0,0 nein 18:30
18:356,8 °C 3,9 °C 3,3 °C 45 % 1025,3 hPa 0,0 mm - 1,4 km/h 4,7 km/h NNO 0,0 W/qm 0,0 nein 18:35
18:406,8 °C 3,9 °C 3,3 °C 45 % 1025,3 hPa 0,0 mm - 0,0 km/h 4,7 km/h NNO 0,0 W/qm 0,0 nein 18:40
18:456,3 °C 3,9 °C 3,3 °C 47 % 1025,5 hPa 0,0 mm - 0,0 km/h 4,7 km/h NNO 0,0 W/qm 0,0 nein 18:45
18:506,2 °C 3,9 °C 3,3 °C 47 % 1025,5 hPa 0,0 mm - 0,0 km/h 4,7 km/h NO 0,0 W/qm 0,0 nein 18:50
18:555,9 °C 3,9 °C 3,3 °C 48 % 1025,6 hPa 0,0 mm - 0,0 km/h 3,2 km/h OSO 0,0 W/qm 0,0 nein 18:55
19:005,8 °C 3,9 °C 3,3 °C 48 % 1025,6 hPa 0,0 mm - 0,0 km/h 3,2 km/h NO 0,0 W/qm 0,0 nein 19:00
19:055,6 °C 3,9 °C 3,3 °C 50 % 1025,7 hPa 0,0 mm 2,2 mm 1,4 km/h 4,7 km/h NO 0,0 W/qm 0,0 nein 19:05
19:105,9 °C 3,9 °C 3,3 °C 50 % 1025,6 hPa 0,0 mm 2,2 mm 1,4 km/h 6,5 km/h W 0,0 W/qm 0,0 nein 19:10
19:156,2 °C 3,9 °C 3,3 °C 49 % 1025,6 hPa 0,0 mm - 1,4 km/h 7,9 km/h ONO 0,0 W/qm 0,0 nein 19:15
19:205,9 °C 3,9 °C 3,3 °C 50 % 1025,6 hPa 0,0 mm - 1,4 km/h 7,9 km/h ONO 0,0 W/qm 0,0 nein 19:20
19:256,2 °C 3,9 °C 3,3 °C 50 % 1025,7 hPa 0,0 mm - 1,4 km/h 7,9 km/h NO 0,0 W/qm 0,0 nein 19:25
19:306,3 °C 3,9 °C 3,3 °C 50 % 1025,7 hPa 0,0 mm - 1,4 km/h 6,5 km/h NNW 0,0 W/qm 0,0 nein 19:30
19:356,6 °C 3,9 °C 3,3 °C 51 % 1025,5 hPa 0,0 mm - 3,2 km/h 11,2 km/h ONO 0,0 W/qm 0,0 nein 19:35
19:406,6 °C 3,9 °C 3,3 °C 50 % 1025,4 hPa 0,0 mm - 1,4 km/h 11,2 km/h ONO 0,0 W/qm 0,0 nein 19:40
19:456,6 °C 3,9 °C 3,3 °C 50 % 1025,4 hPa 0,0 mm - 1,4 km/h 11,2 km/h NO 0,0 W/qm 0,0 nein 19:45
19:506,4 °C 3,9 °C 3,3 °C 51 % 1025,5 hPa 0,0 mm - 1,4 km/h 11,2 km/h NNO 0,0 W/qm 0,0 nein 19:50
19:556,4 °C 3,9 °C 3,3 °C 52 % 1025,5 hPa 0,0 mm - 1,4 km/h 7,9 km/h NW 0,0 W/qm 0,0 nein 19:55
UhrzeitTemperaturBoden 10cmBoden 20cmFeuchteLuftdruckNiederschlagEvapotranspirationWindWindböenWindrichtungSolarstrahlungUV-IndexSonne?Uhrzeit
20:006,3 °C 3,9 °C 3,3 °C 52 % 1025,6 hPa 0,0 mm - 1,4 km/h 7,9 km/h OSO 0,0 W/qm 0,0 nein 20:00
20:056,3 °C 3,9 °C 3,3 °C 52 % 1025,6 hPa 0,0 mm 2,2 mm 3,2 km/h 7,9 km/h NO 0,0 W/qm 0,0 nein 20:05
20:106,2 °C 3,9 °C 3,3 °C 53 % 1025,6 hPa 0,0 mm 2,2 mm 3,2 km/h 9,7 km/h NO 0,0 W/qm 0,0 nein 20:10
20:156,0 °C 3,9 °C 3,3 °C 54 % 1025,6 hPa 0,0 mm - 3,2 km/h 9,7 km/h O 0,0 W/qm 0,0 nein 20:15
20:205,9 °C 3,3 °C 3,3 °C 54 % 1025,6 hPa 0,0 mm - 1,4 km/h 9,7 km/h NNO 0,0 W/qm 0,0 nein 20:20
20:255,9 °C 3,3 °C 3,3 °C 54 % 1025,6 hPa 0,0 mm - 1,4 km/h 7,9 km/h SSW 0,0 W/qm 0,0 nein 20:25
20:305,9 °C 3,3 °C 3,3 °C 54 % 1025,6 hPa 0,0 mm - 3,2 km/h 6,5 km/h OSO 0,0 W/qm 0,0 nein 20:30
20:355,8 °C 3,3 °C 3,3 °C 55 % 1025,6 hPa 0,0 mm - 1,4 km/h 13,0 km/h SW 0,0 W/qm 0,0 nein 20:35
20:405,6 °C 3,3 °C 3,3 °C 55 % 1025,6 hPa 0,0 mm - 3,2 km/h 13,0 km/h SSO 0,0 W/qm 0,0 nein 20:40
20:455,7 °C 3,3 °C 3,3 °C 55 % 1025,5 hPa 0,0 mm - 3,2 km/h 13,0 km/h NNO 0,0 W/qm 0,0 nein 20:45
20:505,6 °C 3,3 °C 3,3 °C 55 % 1025,6 hPa 0,0 mm - 1,4 km/h 9,7 km/h S 0,0 W/qm 0,0 nein 20:50
20:555,6 °C 3,3 °C 3,3 °C 55 % 1025,6 hPa 0,0 mm - 1,4 km/h 9,7 km/h ONO 0,0 W/qm 0,0 nein 20:55
21:005,4 °C 3,3 °C 3,3 °C 56 % 1025,6 hPa 0,0 mm - 0,0 km/h 7,9 km/h N 0,0 W/qm 0,0 nein 21:00
21:055,2 °C 3,3 °C 3,3 °C 57 % 1025,5 hPa 0,0 mm 2,2 mm 1,4 km/h 7,9 km/h S 0,0 W/qm 0,0 nein 21:05
21:105,2 °C 3,3 °C 3,3 °C 56 % 1025,5 hPa 0,0 mm 2,2 mm 1,4 km/h 6,5 km/h WSW 0,0 W/qm 0,0 nein 21:10
21:155,2 °C 3,3 °C 3,3 °C 57 % 1025,4 hPa 0,0 mm - 1,4 km/h 6,5 km/h NO 0,0 W/qm 0,0 nein 21:15
21:205,1 °C 3,3 °C 3,3 °C 58 % 1025,4 hPa 0,0 mm - 1,4 km/h 7,9 km/h WSW 0,0 W/qm 0,0 nein 21:20
21:254,9 °C 3,3 °C 3,3 °C 58 % 1025,6 hPa 0,0 mm - 1,4 km/h 7,9 km/h N 0,0 W/qm 0,0 nein 21:25
21:305,1 °C 3,3 °C 3,3 °C 58 % 1025,6 hPa 0,0 mm - 1,4 km/h 11,2 km/h SSW 0,0 W/qm 0,0 nein 21:30
21:354,9 °C 3,3 °C 3,3 °C 58 % 1025,6 hPa 0,0 mm - 1,4 km/h 11,2 km/h SO 0,0 W/qm 0,0 nein 21:35
21:405,1 °C 3,3 °C 3,3 °C 58 % 1025,5 hPa 0,0 mm - 1,4 km/h 6,5 km/h SW 0,0 W/qm 0,0 nein 21:40
21:454,9 °C 3,3 °C 3,3 °C 58 % 1025,4 hPa 0,0 mm - 1,4 km/h 6,5 km/h S 0,0 W/qm 0,0 nein 21:45
21:504,8 °C 3,3 °C 3,3 °C 59 % 1025,6 hPa 0,0 mm - 1,4 km/h 6,5 km/h S 0,0 W/qm 0,0 nein 21:50
21:554,7 °C 3,3 °C 3,3 °C 59 % 1025,5 hPa 0,0 mm - 1,4 km/h 7,9 km/h NNO 0,0 W/qm 0,0 nein 21:55
UhrzeitTemperaturBoden 10cmBoden 20cmFeuchteLuftdruckNiederschlagEvapotranspirationWindWindböenWindrichtungSolarstrahlungUV-IndexSonne?Uhrzeit
22:004,8 °C 3,3 °C 3,3 °C 59 % 1025,5 hPa 0,0 mm - 1,4 km/h 7,9 km/h SSO 0,0 W/qm 0,0 nein 22:00
22:054,7 °C 3,3 °C 3,3 °C 59 % 1025,5 hPa 0,0 mm 2,2 mm 1,4 km/h 7,9 km/h SW 0,0 W/qm 0,0 nein 22:05
22:104,3 °C 3,3 °C 3,3 °C 60 % 1025,5 hPa 0,0 mm 2,2 mm 0,0 km/h 7,9 km/h SSW 0,0 W/qm 0,0 nein 22:10
22:154,2 °C 3,3 °C 3,3 °C 61 % 1025,3 hPa 0,0 mm - 0,0 km/h 7,9 km/h WSW 0,0 W/qm 0,0 nein 22:15
22:204,0 °C 3,3 °C 3,3 °C 61 % 1025,4 hPa 0,0 mm - 1,4 km/h 3,2 km/h SW 0,0 W/qm 0,0 nein 22:20
22:253,9 °C 3,3 °C 3,3 °C 62 % 1025,3 hPa 0,0 mm - 1,4 km/h 6,5 km/h SSW 0,0 W/qm 0,0 nein 22:25
22:303,7 °C 3,3 °C 3,3 °C 62 % 1025,3 hPa 0,0 mm - 0,0 km/h 6,5 km/h SSW 0,0 W/qm 0,0 nein 22:30
22:353,2 °C 3,3 °C 3,3 °C 64 % 1025,4 hPa 0,0 mm - 0,0 km/h 6,5 km/h WSW 0,0 W/qm 0,0 nein 22:35
22:402,6 °C 3,3 °C 3,3 °C 66 % 1025,5 hPa 0,0 mm - 0,0 km/h 3,2 km/h WSW 0,0 W/qm 0,0 nein 22:40
22:452,4 °C 3,3 °C 3,3 °C 67 % 1025,5 hPa 0,0 mm - 0,0 km/h 3,2 km/h WSW 0,0 W/qm 0,0 nein 22:45
22:502,5 °C 3,3 °C 3,3 °C 67 % 1025,5 hPa 0,0 mm - 0,0 km/h 3,2 km/h NNW 0,0 W/qm 0,0 nein 22:50
22:552,7 °C 3,3 °C 3,3 °C 67 % 1025,5 hPa 0,0 mm - 0,0 km/h 4,7 km/h SSO 0,0 W/qm 0,0 nein 22:55
23:002,6 °C 3,3 °C 3,3 °C 66 % 1025,5 hPa 0,0 mm - 0,0 km/h 4,7 km/h SSO 0,0 W/qm 0,0 nein 23:00
23:052,6 °C 3,3 °C 3,3 °C 67 % 1025,4 hPa 0,0 mm 2,2 mm 0,0 km/h 4,7 km/h S 0,0 W/qm 0,0 nein 23:05
23:102,6 °C 3,3 °C 3,3 °C 67 % 1025,4 hPa 0,0 mm 2,2 mm 0,0 km/h 4,7 km/h S 0,0 W/qm 0,0 nein 23:10
23:152,2 °C 3,3 °C 3,3 °C 67 % 1025,5 hPa 0,0 mm - 0,0 km/h 4,7 km/h S 0,0 W/qm 0,0 nein 23:15
23:201,8 °C 3,3 °C 3,3 °C 69 % 1025,7 hPa 0,0 mm - 0,0 km/h 4,7 km/h S 0,0 W/qm 0,0 nein 23:20
23:251,5 °C 3,3 °C 3,3 °C 70 % 1025,7 hPa 0,0 mm - 0,0 km/h 1,4 km/h S 0,0 W/qm 0,0 nein 23:25
23:301,5 °C 3,3 °C 3,3 °C 71 % 1025,7 hPa 0,0 mm - 0,0 km/h 3,2 km/h S 0,0 W/qm 0,0 nein 23:30
23:351,6 °C 3,3 °C 3,3 °C 71 % 1025,6 hPa 0,0 mm - 0,0 km/h 3,2 km/h NNO 0,0 W/qm 0,0 nein 23:35
23:401,3 °C 3,3 °C 3,3 °C 71 % 1025,7 hPa 0,0 mm - 0,0 km/h 4,7 km/h NNO 0,0 W/qm 0,0 nein 23:40
23:451,0 °C 3,3 °C 3,3 °C 72 % 1025,7 hPa 0,0 mm - 0,0 km/h 4,7 km/h NNO 0,0 W/qm 0,0 nein 23:45
23:500,8 °C 3,3 °C 3,3 °C 73 % 1025,6 hPa 0,0 mm - 0,0 km/h 4,7 km/h S 0,0 W/qm 0,0 nein 23:50
23:551,1 °C 3,3 °C 3,3 °C 73 % 1025,6 hPa 0,0 mm - 1,4 km/h 3,2 km/h S 0,0 W/qm 0,0 nein 23:55
Gesamt: 3,0 °C 2,6 °C 2,9 °C 63 % 1027,8 hPa 0,0 mm 45,9 mm 1,7 km/h 6,4 km/h 0 175,0 W/qm 0,5 ja

Insgesamt 288 Zeilen mal 13 Spalten = 3744 Werte werden angezeigt.

www.wetter-rosstal.de   •   www.wetter-franken.de   •   www.lightningmaps.org   •   Start   •   Kontakt / Datenschutz   •   PC-Kümmerer